DELTA 1 DEB, 18540

Orbit data source: Space-Track

DELTA 1 DEB, 18540 is space debris in LEO originally from a launch on Thu, 29 Jul 1976 UTC launched from the Air Force Western Test Range (AFWTR). Debris objects in space refer to the collection of defunct objects orbiting the Earth. Examples of debris include non-operational satellites, rocket bodies, and fragments generated from explosions, collisions, or faulty payload assembly.

Loading next visibility...
Identifier
18540, 1976-077FC
Orbit
LEO
Country
Flag of USUS
Related business
Manufacturer
Unknown
Mission
Spacecraft
Bus & Motor
Unknown
Mass
Unknown
Launch date (UTC)
1976-07-29 (50 years ago)
Launch vehicle
Unknown
Launch site
Air Force Western Test Range (AFWTR)
Object type
Payload
Rocket body
Debris
Shape & HBR
Unknown shape, 0.1 m
Radar Cross Section
Medium (>0.1 m² and <1 m²)

Expand to show TLE details & history
Last TLE update: 22 hours ago

TLE from 22 hours ago
0 DELTA 1 DEB
1 18540U 76077FC  26255.18372367  .00001192  00000-0  71046-2 0  9995
2 18540 103.7587  40.2565 0434069 227.1059 311.1242 12.36247711626030
Epoch: 2026-09-12T04:24Z
TLE epoch observation values (Epoch: 2026-09-12T04:24:33.725Z)
Latitude
5.41621°
Longitude
164.24321°
Altitude
1,307.723 km
Speed
7.301 km/s
True Right ascension
14h 46m 19s
True Declination
5° 23' 11"
Sunlit
Object was in daylight at epoch
Visualization orbit readout
Latitude
Unknown
Longitude
Unknown
Altitude
Unknown
Speed
Unknown
Apparent Right ascension
Unknown
Apparent Declination
Unknown
Sunlit
N/A
Visualization observer readout
Local Sidereal Time
18:35:08
Azimuth
Unknown
Elevation
Unknown
Doppler factor
Unknown
Orbital elements
Apogee altitude
1,863.078 km
Perigee altitude
1,177.39 km
Semi-major axis
7,898.371 km
Eccentricity
0.04341
Inclination
103.7587°
RAAN
40.2565°
Arg. of periapsis
227.1059°
True anomaly
307.24185°
Mean anomaly
311.1242°
Eccentric anomaly
309.1968°
Mean motion
3.09198 °/min
Orbital period
116.43 mins
BSTAR
0.0071046
Loading maneuver chart data...
Computing Atmospheric mass density...
Loading historical data...
Loading historical data...
Loading historical data...
Loading historical data...
Loading historical data...
Loading historical data...
Loading historical data...

Documentation

Showing up to 5 results
|